Airfield :
LOGIN :

Register | Disclaimer

   EN    FR    IT 

 










Legend :    VFR   Marginal VFR   IFR   Intensive IFR   Very Intensive IFR
Visi :
Ceiling :
>= 8 km
>= 3000ft
5 to 8 km
1000 to 3000 ft
1500m to 5 km
500 to 1000 ft
800 to 1500m
200 to 500 ft
< 800m
< 200 ft
Symbols :   Thunderstorms  Fog  Heavy snow  Heavy precipitations  Wind > 20 kt
SIGMETs :     Misc.  Thunderstorms  Icing  Turbulence  Mountain Waves  Volcanic Ashes






- Airport Elevation : 1947 ft
- IATA code : OBF


EDMO - Oberpfaffenhofen

CURRENT METAR :
  • 180520Z AUTO 36003KT 340V040 9999 // OVC021/// 02/01 Q1018

EXPIRED METARs :
  • 180450Z AUTO 35004KT 9999 // OVC023/// 02/01 Q1018
  • 180420Z AUTO 01004KT 9999 // BKN024/// OVC042/// 02/01 Q1018
  • 180350Z AUTO 36004KT 9999 // BKN039/// OVC069/// 02/01 Q1018
  • 180320Z AUTO 02003KT 9999 // FEW038/// BKN043/// OVC100/// 02/00 Q1018
  • 180250Z AUTO 02004KT 9999 // FEW015/// OVC097/// 02/01 Q1018

Expired Forecast.



MET'MAP, your aeronautical weather chart ! - Copyright ORBIFLY December 2007 - Disclaimer

ORBIFLY MET'MAP TEAM :

Programming & Development : Alexandra Zaïnal
Concept & original design : Baudouin d'Aumeries
Assistance for programming : Marc-Olivier Méhu
Technical & hardware support : Manuel Goepfert

Contact : metmap@orbifly.com




SOURCES & CREDITS :

   NOAA